User: anonymous   Login
Location: Holcomb Observatory
(44.4922°N, 73.1654°W)
Time: 01:10:05
(UTC-04:00)
Language:

Cosmos 1727 Rocket - Orbit

View from above orbital plane
View from above orbital plane
View from above satellite
View from above satellite

Ground track
Ground track

The orbit data is extracted from the following two-line orbital elements,

1 16511U 86008B   16270.04629161 -.00000033  00000-0 -49321-4 0  9992
2 16511  82.9436  55.8024 0023072 302.1555 195.4158 13.75808164539954
Epoch (UTC): 26 September 2016 01:06:39
Eccentricity: 0.0023072
inclination: 82.9436°
perigee height: 962 km
apogee height: 996 km
right ascension of ascending node: 55.8024°
argument of perigee: 302.1555°
revolutions per day: 13.75808164
mean anomaly at epoch: 195.4158°
orbit number at epoch: 53995

The dashed part of the orbit path shows where the satellite is in the earth's shadow,  

DLR